{"data":{"norad_id":52127,"intl_designator":"2022-029AR","name":"STARLINK-3715","alt_names":[],"object_type":"PAYLOAD","status":"ACTIVE","operator":null,"country":"US","launch_date":"2022-03-19","launch_site_code":"AFETR","launch_vehicle":null,"mission":null,"orbit_class":"UNKNOWN","rcs_meters":null,"size_class":null,"mass_kg":null,"dimensions":null,"purposes":["comms"],"wikipedia_slug":null,"has_3d_model":false,"image_url":null,"decayed_at":null,"tle_current":{"epoch":"2026-05-25T03:03:10.751328Z","epoch_age_seconds":78262,"freshness":"FRESH","line1":"1 52127U 22029AR  26145.12720777 -.00000163  00000+0  78359-5 0  9990","line2":"2 52127  53.2136  85.9790 0001555  88.4255 271.6915 15.08837603232464","mean_motion":15.08837603,"eccentricity":0.0001555,"inclination_deg":53.2136,"raan_deg":85.979,"arg_perigee_deg":88.4255,"mean_anomaly_deg":271.6915,"bstar":7.8359e-6,"rev_number":23246,"period_min":95.437706293697,"perigee_km":538.67498410409,"apogee_km":540.82644718365,"semimajor_km":6917.8877156439,"source":"CELESTRAK","updated_at":"2026-05-25T13:38:17.076859Z"}}}